Time,TemperatureF,DewpointF,PressureIn,WindDirection,WindDirectionDegrees,WindSpeedMPH,WindSpeedGustMPH,Humidity,HourlyPrecipIn,Conditions,Clouds,dailyrainin,SolarRadiationWatts/m^2,SoftwareType,DateUTC
2013-01-12 01:00:00,-1.0,-4.0,29.94,NW,316,23.0,-999.0,87,-99.99,,,-99.99,0.080000,,2013-01-12 08:00:00,
2013-01-12 01:53:00,-1.0,-4.0,29.94,NW,316,23.0,-999.0,87,-99.99,,,-99.99,0.080000,,2013-01-12 08:53:00,
2013-01-12 02:00:00,0.0,-3.0,29.96,NW,314,21.0,-999.0,87,-99.99,,,-99.99,0.060000,,2013-01-12 09:00:00,
2013-01-12 02:53:00,0.0,-3.0,29.96,NW,314,21.0,-999.0,87,-99.99,,,-99.99,0.060000,,2013-01-12 09:53:00,
2013-01-12 03:00:00,-2.0,-5.0,29.99,NW,314,20.0,-999.0,86,-99.99,,,-99.99,0.060000,,2013-01-12 10:00:00,
2013-01-12 03:52:00,-2.0,-5.0,29.99,NW,314,20.0,-999.0,86,-99.99,,,-99.99,0.060000,,2013-01-12 10:52:00,
2013-01-12 04:00:00,-2.0,-6.0,29.99,NW,304,19.0,-999.0,86,-99.99,,,-99.99,0.070000,,2013-01-12 11:00:00,
2013-01-12 04:53:00,-2.0,-6.0,29.99,NW,304,19.0,-999.0,86,-99.99,,,-99.99,0.070000,,2013-01-12 11:53:00,
2013-01-12 05:00:00,-2.0,-5.0,29.99,NW,307,16.0,-999.0,85,-99.99,,,-99.99,0.060000,,2013-01-12 12:00:00,
2013-01-12 05:53:00,-2.0,-5.0,29.99,NW,307,16.0,-999.0,85,-99.99,,,-99.99,0.060000,,2013-01-12 12:53:00,
2013-01-12 06:00:00,-1.0,-5.0,29.99,NW,311,16.0,-999.0,85,-99.99,,,-99.99,0.070000,,2013-01-12 13:00:00,
2013-01-12 06:53:00,-1.0,-5.0,29.99,NW,311,16.0,-999.0,85,-99.99,,,-99.99,0.070000,,2013-01-12 13:53:00,
2013-01-12 07:00:00,-3.0,-7.0,30.02,WNW,298,10.0,-999.0,83,-99.99,,,-99.99,0.050000,,2013-01-12 14:00:00,
2013-01-12 07:53:00,-3.0,-7.0,30.02,WNW,298,10.0,-999.0,83,-99.99,,,-99.99,0.050000,,2013-01-12 14:53:00,
2013-01-12 08:00:00,-4.0,-9.0,30.03,WNW,285,6.0,-999.0,81,-99.99,,,-99.99,2.270000,,2013-01-12 15:00:00,
2013-01-12 08:53:00,-4.0,-9.0,30.03,WNW,285,6.0,-999.0,81,-99.99,,,-99.99,2.270000,,2013-01-12 15:53:00,
2013-01-12 09:00:00,-3.0,-7.0,30.05,West,266,8.0,-999.0,81,-99.99,,,-99.99,69.879997,,2013-01-12 16:00:00,
2013-01-12 09:53:00,-3.0,-7.0,30.05,West,266,8.0,-999.0,81,-99.99,,,-99.99,69.879997,,2013-01-12 16:53:00,
2013-01-12 10:00:00,1.0,-5.0,30.06,WSW,251,6.0,-999.0,76,-99.99,,,-99.99,132.100006,,2013-01-12 17:00:00,
2013-01-12 10:53:00,1.0,-5.0,30.06,WSW,251,6.0,-999.0,76,-99.99,,,-99.99,132.100006,,2013-01-12 17:53:00,
2013-01-12 11:00:00,3.0,-3.0,30.06,SW,228,5.0,-999.0,77,-99.99,,,-99.99,296.200012,,2013-01-12 18:00:00,
2013-01-12 11:53:00,3.0,-3.0,30.06,SW,228,5.0,-999.0,77,-99.99,,,-99.99,296.200012,,2013-01-12 18:53:00,
2013-01-12 12:00:00,4.0,-3.0,30.06,WSW,248,5.0,-999.0,74,-99.99,,,-99.99,268.399994,,2013-01-12 19:00:00,
2013-01-12 12:53:00,4.0,-3.0,30.06,WSW,248,5.0,-999.0,74,-99.99,,,-99.99,268.399994,,2013-01-12 19:53:00,
2013-01-12 13:00:00,4.0,-2.0,30.05,SW,236,7.0,-999.0,74,-99.99,,,-99.99,316.700012,,2013-01-12 20:00:00,
2013-01-12 13:53:00,4.0,-2.0,30.05,SW,236,7.0,-999.0,74,-99.99,,,-99.99,316.700012,,2013-01-12 20:53:00,
2013-01-12 14:00:00,5.0,-3.0,30.06,WSW,253,9.0,-999.0,70,-99.99,,,-99.99,300.600006,,2013-01-12 21:00:00,
2013-01-12 14:53:00,5.0,-3.0,30.06,WSW,253,9.0,-999.0,70,-99.99,,,-99.99,300.600006,,2013-01-12 21:53:00,
2013-01-12 15:00:00,5.0,-1.0,30.06,WSW,248,10.0,-999.0,73,-99.99,,,-99.99,193.500000,,2013-01-12 22:00:00,
2013-01-12 15:53:00,5.0,-1.0,30.06,WSW,248,10.0,-999.0,73,-99.99,,,-99.99,193.500000,,2013-01-12 22:53:00,
2013-01-12 16:00:00,5.0,-2.0,30.05,WSW,247,9.0,-999.0,74,-99.99,,,-99.99,76.250000,,2013-01-12 23:00:00,
2013-01-12 16:53:00,5.0,-2.0,30.05,WSW,247,9.0,-999.0,74,-99.99,,,-99.99,76.250000,,2013-01-12 23:53:00,
2013-01-12 17:00:00,5.0,-1.0,30.05,West,263,7.0,-999.0,76,-99.99,,,-99.99,8.890000,,2013-01-13 00:00:00,
2013-01-12 17:53:00,5.0,-1.0,30.05,West,263,7.0,-999.0,76,-99.99,,,-99.99,8.890000,,2013-01-13 00:53:00,
2013-01-12 18:00:00,4.0,-1.0,30.05,West,260,7.0,-999.0,78,-99.99,,,-99.99,0.060000,,2013-01-13 01:00:00,
2013-01-12 18:53:00,4.0,-1.0,30.05,West,260,7.0,-999.0,78,-99.99,,,-99.99,0.060000,,2013-01-13 01:53:00,
2013-01-12 19:00:00,4.0,-1.0,30.04,WSW,240,7.0,-999.0,79,-99.99,,,-99.99,0.040000,,2013-01-13 02:00:00,
2013-01-12 19:53:00,4.0,-1.0,30.04,WSW,240,7.0,-999.0,79,-99.99,,,-99.99,0.040000,,2013-01-13 02:53:00,
2013-01-12 20:00:00,6.0,1.0,30.03,SW,235,8.0,-999.0,79,-99.99,,,-99.99,0.040000,,2013-01-13 03:00:00,
2013-01-12 20:53:00,6.0,1.0,30.03,SW,235,8.0,-999.0,79,-99.99,,,-99.99,0.040000,,2013-01-13 03:53:00,
2013-01-12 21:00:00,5.0,1.0,30.02,WSW,254,9.0,-999.0,83,-99.99,,,-99.99,0.050000,,2013-01-13 04:00:00,
2013-01-12 21:53:00,5.0,1.0,30.02,WSW,254,9.0,-999.0,83,-99.99,,,-99.99,0.050000,,2013-01-13 04:53:00,
2013-01-12 22:00:00,1.0,-3.0,30.02,WNW,286,8.0,-999.0,83,-99.99,,,-99.99,0.030000,,2013-01-13 05:00:00,
2013-01-12 22:53:00,1.0,-3.0,30.02,WNW,286,8.0,-999.0,83,-99.99,,,-99.99,0.030000,,2013-01-13 05:53:00,
2013-01-12 23:00:00,2.0,-2.0,30.02,WNW,284,13.0,-999.0,83,-99.99,,,-99.99,0.040000,,2013-01-13 06:00:00,
2013-01-12 23:52:00,2.0,-2.0,30.02,WNW,284,13.0,-999.0,83,-99.99,,,-99.99,0.040000,,2013-01-13 06:52:00,